Weather History for KFXE - November, 2012

Change the Weather History Date:

Saturday, November 3, 2012

  Actual Average Record
Temperature  
Mean Temperature 70 °F -  
Max Temperature 84 °F 84 °F 92 °F (1973)
Min Temperature 59 °F 68 °F 52 °F (1954)
Cooling Degree Days 6    
Growing Degree Days 20 (Base 50)    
Moisture  
Dew Point 55 °F    
Average Humidity 63    
Maximum Humidity 87    
Minimum Humidity 26    
Precipitation  
Precipitation 0.00 in - - ()
Sea Level Pressure  
Sea Level Pressure 30.10 in    
Wind  
Wind Speed 2 mph (NNE)    
Max Wind Speed 10 mph    
Max Gust Speed -    
Visibility 10 miles    
Events      
Averages and records for this station are not official NWS values.
T = Trace of Precipitation, MM = Missing Value Source: NWS Daily Summary

Daily Weather History Graph

Daily Weather History Graph

Search for Another Location

Airport or City:

Trip Planner

Search our weather history database for the weather conditions in past years. The results will help you decide how hot, cold, wet, or windy it might be!

Date:

Astronomy

Nov. 03, 2012 Rise Set
Actual Time 7:31 AM EDT 6:36 PM EDT
Civil Twilight 7:07 AM EDT 7:00 PM EDT
Nautical Twilight 6:39 AM EDT 7:28 PM EDT
Astronomical Twilight 6:12 AM EDT 7:55 PM EDT
Moon 10:25 PM EDT (11/3) 11:24 AM EDT (11/3)
Length of Visible Light 11h 53m
Length of Day
11h 05m
Waning Gibbous, 80% of the Moon is Illuminated
Nov 3
Waning Gibbous
Nov 6
Last Quarter
Nov 13
New
Nov 20
First Quarter
Nov 28
Full

Hourly Weather History & Observations

Time (EDT) Temp. Heat Index Dew Point Humidity Pressure Visibility Wind Dir Wind Speed Gust Speed Precip Events Conditions
12:53 AM 61.0 °F - 53.1 °F 75% 30.09 in 10.0 mi Calm Calm - N/A   Clear
1:53 AM 60.1 °F - 54.0 °F 80% 30.09 in 10.0 mi Calm Calm - N/A   Clear
2:53 AM 60.1 °F - 55.0 °F 83% 30.07 in 10.0 mi Calm Calm - N/A   Clear
3:53 AM 60.1 °F - 55.9 °F 86% 30.07 in 10.0 mi WNW 4.6 mph - N/A   Clear
4:53 AM 60.1 °F - 55.9 °F 86% 30.07 in 10.0 mi Calm Calm - N/A   Clear
5:53 AM 60.1 °F - 54.0 °F 80% 30.09 in 10.0 mi Calm Calm - N/A   Clear
6:53 AM 59.0 °F - 55.0 °F 87% 30.10 in 10.0 mi NNW 3.5 mph - N/A   Clear
7:53 AM 61.0 °F - 54.0 °F 78% 30.12 in 10.0 mi North 3.5 mph - N/A   Partly Cloudy
8:53 AM 66.0 °F - 54.0 °F 65% 30.14 in 10.0 mi North 3.5 mph - N/A   Clear
9:53 AM 71.1 °F - 52.0 °F 51% 30.16 in 10.0 mi North 4.6 mph - N/A   Clear
10:53 AM 75.9 °F - 48.0 °F 37% 30.15 in 10.0 mi NNW 6.9 mph - N/A   Clear
11:53 AM 78.1 °F - 50.0 °F 37% 30.14 in 10.0 mi North 6.9 mph - N/A   Clear
12:53 PM 79.0 °F - 50.0 °F 36% 30.12 in 10.0 mi Variable 3.5 mph - N/A   Clear
1:53 PM 82.0 °F - 46.0 °F 28% 30.10 in 10.0 mi ENE 4.6 mph - N/A   Clear
2:53 PM 82.9 °F - 45.0 °F 26% 30.08 in 10.0 mi NE 5.8 mph - N/A   Clear
3:53 PM 81.0 °F 80.4 °F 53.1 °F 38% 30.07 in 10.0 mi East 10.4 mph - N/A   Clear
4:53 PM 80.1 °F 80.2 °F 55.9 °F 43% 30.06 in 10.0 mi East 8.1 mph - N/A   Clear
5:53 PM 78.1 °F - 57.9 °F 50% 30.07 in 10.0 mi East 9.2 mph - N/A   Clear
6:53 PM 75.0 °F - 60.1 °F 60% 30.08 in 10.0 mi NE 4.6 mph - N/A   Clear
7:53 PM 73.0 °F - 60.1 °F 64% 30.09 in 10.0 mi Calm Calm - N/A   Clear
8:53 PM 69.1 °F - 61.0 °F 75% 30.10 in 10.0 mi Calm Calm - N/A   Clear
9:53 PM 66.9 °F - 61.0 °F 81% 30.11 in 10.0 mi Calm Calm - N/A   Clear
10:53 PM 66.0 °F - 61.0 °F 84% 30.12 in 10.0 mi Calm Calm - N/A   Clear
11:53 PM 64.9 °F - 61.0 °F 87% 30.12 in 10.0 mi Calm Calm - N/A   Clear